[TLELIST] Archives

 

[TLELIST] Current TLEs

November 16th 2025 PDT

0 HST 1 20580U 90037B 25319.68308380 .00009217 00000-0 32437-3 0 9991 2 20580 28.4677 96.5739 0001376 302.9143 57.1320 15.27534136755854 0 ISS (ZARYA) 1 25544U 98067A 25319.38552854 .00013221 00000-0 24188-3 0 9995 2 25544 51.6327 277.8788 0004161 73.2410 286.9034 15.49683527538617 0 CXO 1 25867U 99040B 25320.17224448 .00000509 00000-0 00000+0 0 9997 2 25867 52.5589 123.4464 8183192 310.7890 0.0431 0.37809530 16514 ...Continue Reading

[TLELIST] Current TLEs

November 15th 2025 PDT

0 HST 1 20580U 90037B 25318.70307728 .00008593 00000-0 30207-3 0 9997 2 20580 28.4675 103.2400 0001369 288.8831 71.1616 15.27514736755703 0 ISS (ZARYA) 1 25544U 98067A 25318.54719561 .00013278 00000-0 24309-3 0 9999 2 25544 51.6328 282.0308 0004169 69.9599 290.1838 15.49658592538480 0 CXO 1 25867U 99040B 25320.17224448 .00000509 00000-0 00000+0 0 9997 2 25867 52.5589 123.4464 8183192 310.7890 0.0431 0.37809530 16514 ...Continue Reading

[TLELIST] Current TLEs

November 14th 2025 PDT

0 HST 1 20580U 90037B 25317.78839397 .00015346 00000-0 54543-3 0 9999 2 20580 28.4676 109.4617 0001402 277.9729 82.0707 15.27499624755569 0 ISS (ZARYA) 1 25544U 98067A 25318.22475630 .00013472 00000-0 24659-3 0 9994 2 25544 51.6329 283.6283 0004195 68.4296 291.7139 15.49650045538438 0 CXO 1 25867U 99040B 25320.17224448 .00000509 00000-0 00000+0 0 9997 2 25867 52.5589 123.4464 8183192 310.7890 0.0431 0.37809530 16514 ...Continue Reading

[TLELIST] Current TLEs

November 13th 2025 PDT

0 HST 1 20580U 90037B 25316.74302525 .00014397 00000-0 51187-3 0 9998 2 20580 28.4676 116.5718 0001377 261.5912 98.4527 15.27462858755407 0 ISS (ZARYA) 1 25544U 98067A 25317.19293592 .00019765 00000-0 35825-3 0 9992 2 25544 51.6333 288.7385 0004163 64.5254 295.6165 15.49608679538278 0 CXO 1 25867U 99040B 25320.17194638 .00000509 00000-0 00000-0 0 9995 2 25867 52.5589 123.4464 8183177 310.7889 0.0024 0.37810289 16516 ...Continue Reading

[TLELIST] Current TLEs

November 12th 2025 PDT

0 HST 1 20580U 90037B 25315.76296958 .00008867 00000-0 31276-3 0 9993 2 20580 28.4674 123.2374 0001388 246.9456 113.0993 15.27432822755252 0 ISS (ZARYA) 1 25544U 98067A 25316.22557474 .00019835 00000-0 36009-3 0 9990 2 25544 51.6334 293.5281 0004132 61.4658 298.6746 15.49560899538121 0 CXO 1 25867U 99040B 25317.52732426 .00000566 00000-0 00000-0 0 9996 2 25867 52.5245 123.5231 8189826 310.7924 359.9888 0.37808268 16502 ...Continue Reading

[TLELIST] Current TLEs

November 11th 2025 PDT

0 HST 1 20580U 90037B 25314.78289832 .00008261 00000-0 29101-3 0 9999 2 20580 28.4673 129.9029 0001426 233.3500 126.6964 15.27415033755101 0 ISS (ZARYA) 1 25544U 98067A 25315.25818480 .00012468 00000-0 22984-3 0 9991 2 25544 51.6338 298.3179 0004133 57.8977 302.2413 15.49525392537972 0 CXO 1 25867U 99040B 25317.52732426 .00000566 00000-0 00000-0 0 9996 2 25867 52.5245 123.5231 8189826 310.7924 359.9888 0.37808268 16502 ...Continue Reading

[TLELIST] Current TLEs

November 10th 2025 PDT

0 HST 1 20580U 90037B 25312.62670398 .00009804 00000-0 34712-3 0 9999 2 20580 28.4659 144.5654 0001507 200.4727 159.5808 15.27381835754774 0 ISS (ZARYA) 1 25544U 98067A 25313.96830531 .00008626 00000-0 16179-3 0 9998 2 25544 51.6342 304.7042 0004075 52.7615 307.3745 15.49490024537771 0 CXO 1 25867U 99040B 25314.88189230 .00000644 00000-0 00000-0 0 9998 2 25867 52.4753 123.6159 8196274 310.7754 359.8979 0.37805256 16493 ...Continue Reading

[TLELIST] Current TLEs

November 9th 2025 PDT

0 HST 1 20580U 90037B 25312.62670398 .00009804 00000-0 34712-3 0 9999 2 20580 28.4659 144.5654 0001507 200.4727 159.5808 15.27381835754774 0 ISS (ZARYA) 1 25544U 98067A 25312.42041502 .00013418 00000-0 24734-3 0 9991 2 25544 51.6332 312.3676 0004093 47.8963 312.2373 15.49452868537539 0 CXO 1 25867U 99040B 25314.88189230 .00000644 00000-0 00000-0 0 9998 2 25867 52.4753 123.6159 8196274 310.7754 359.8979 0.37805256 16493 ...Continue Reading

[TLELIST] Current TLEs

November 8th 2025 PDT

0 HST 1 20580U 90037B 25311.64659943 .00009254 00000-0 32743-3 0 9994 2 20580 28.4657 151.2306 0001575 189.0380 171.0187 15.27362982754628 0 ISS (ZARYA) 1 25544U 98067A 25311.45303466 .00013372 00000-0 24333-3 0 9997 2 25544 51.6332 317.1578 0005147 27.3119 332.8140 15.49822938537382 0 CXO 1 25867U 99040B 25314.88189229 .00000644 00000-0 00000+0 0 9995 2 25867 52.4753 123.6159 8196273 310.7754 359.8979 0.37805256 16492 ...Continue Reading

[TLELIST] Current TLEs

November 7th 2025 PDT

0 HST 1 20580U 90037B 25310.66648323 .00008493 00000-0 30006-3 0 9999 2 20580 28.4657 157.8958 0001635 179.8575 180.2020 15.27343532754474 0 ISS (ZARYA) 1 25544U 98067A 25311.19511068 .00011482 00000-0 21019-3 0 9995 2 25544 51.6334 318.4356 0005155 25.9626 334.1621 15.49813276537348 0 CXO 1 25867U 99040B 25312.23653082 .00000686 00000-0 00000-0 0 9992 2 25867 52.4220 123.7217 8202474 310.7381 359.8594 0.37807226 16485 ...Continue Reading
  • This mailing list is a public mailing list - anyone may join or leave, at any time.
  • This mailing list is announce-only.

International Space Station (ISS) / Hubble Space Telescope (HST) / Chandra X-Ray Observatory Orbital Data via EMAIL

Privacy Policy:

Private list